TimeCDT,TemperatureF,Dew PointF,Humidity,Sea Level PressureIn,VisibilityMPH,Wind Direction,Wind SpeedMPH,Gust SpeedMPH,PrecipitationIn,Events,Conditions,WindDirDegrees,DateUTC
12:53 AM,57.0,54.0,89,29.89,10.0,Calm,Calm,-,N/A,,Clear,0,2012-10-17 05:53:00
1:53 AM,57.0,54.0,89,29.88,10.0,Calm,Calm,-,N/A,,Clear,0,2012-10-17 06:53:00
2:53 AM,57.0,55.0,93,29.87,10.0,Calm,Calm,-,N/A,,Clear,0,2012-10-17 07:53:00
3:53 AM,57.0,55.0,93,29.88,10.0,Calm,Calm,-,N/A,,Clear,0,2012-10-17 08:53:00
4:53 AM,57.0,55.0,93,29.90,10.0,Calm,Calm,-,N/A,,Clear,0,2012-10-17 09:53:00
5:53 AM,57.0,54.0,89,29.91,10.0,Calm,Calm,-,N/A,,Clear,0,2012-10-17 10:53:00
6:53 AM,57.0,54.0,89,29.92,10.0,Calm,Calm,-,N/A,,Clear,0,2012-10-17 11:53:00
7:53 AM,57.0,54.0,89,29.92,10.0,Calm,Calm,-,N/A,,Clear,0,2012-10-17 12:53:00
8:53 AM,64.9,54.0,68,29.92,10.0,Variable,4.6,-,N/A,,Clear,0,2012-10-17 13:53:00
9:53 AM,70.0,54.0,57,29.92,10.0,SSE,6.9,-,N/A,,Clear,150,2012-10-17 14:53:00
10:53 AM,73.9,53.1,48,29.92,10.0,South,9.2,-,N/A,,Clear,180,2012-10-17 15:53:00
11:53 AM,75.9,50.0,40,29.89,10.0,South,8.1,-,N/A,,Clear,180,2012-10-17 16:53:00
12:53 PM,77.0,51.1,40,29.87,10.0,South,6.9,-,N/A,,Clear,190,2012-10-17 17:53:00
1:53 PM,79.0,50.0,36,29.83,10.0,SSW,8.1,-,N/A,,Clear,200,2012-10-17 18:53:00
2:53 PM,79.0,48.0,34,29.81,10.0,South,6.9,-,N/A,,Clear,180,2012-10-17 19:53:00
3:53 PM,79.0,50.0,36,29.80,10.0,Variable,6.9,-,N/A,,Clear,0,2012-10-17 20:53:00
4:53 PM,77.0,52.0,42,29.80,10.0,South,6.9,-,N/A,,Clear,170,2012-10-17 21:53:00
5:53 PM,73.0,55.0,53,29.80,10.0,Calm,Calm,-,N/A,,Clear,0,2012-10-17 22:53:00
6:53 PM,66.0,55.9,70,29.81,10.0,Calm,Calm,-,N/A,,Clear,0,2012-10-17 23:53:00
7:53 PM,64.9,57.9,78,29.84,10.0,Calm,Calm,-,N/A,,Overcast,0,2012-10-18 00:53:00
8:53 PM,62.1,57.9,86,29.86,10.0,Calm,Calm,-,N/A,,Clear,0,2012-10-18 01:53:00
9:53 PM,62.1,57.9,86,29.85,10.0,Calm,Calm,-,N/A,,Clear,0,2012-10-18 02:53:00
10:53 PM,62.1,57.9,86,29.83,10.0,SW,3.5,-,N/A,,Clear,230,2012-10-18 03:53:00
11:53 PM,63.0,57.9,84,29.81,10.0,SSW,3.5,-,N/A,,Clear,200,2012-10-18 04:53:00